• In Hungary
  • List of Countries
  • For 7 days
  • Water Temperature
  • Satellite Maps
  • Weather Map
  • News
  • Weather Widgets
  • user-avatar
    Login

    Hourly Weather Ayorou

    Today, 19 September, Wednesday

    Time Temperature Precipitation Wind Pressure Humidity
    00:00 +38°C° 0 mm 3 mps 737 mmHg 33%
    01:00 +37°C° 0 mm 4 mps 737 mmHg 36%
    02:00 +36°C° 0 mm 4 mps 737 mmHg 39%
    03:00 +36°C° 0 mm 4 mps 737 mmHg 43%
    04:00 +35°C° 0 mm 4 mps 737 mmHg 46%
    05:00 +35°C° 0 mm 5 mps 737 mmHg 49%
    06:00 +34°C° 0 mm 5 mps 738 mmHg 54%
    07:00 +35°C° 0 mm 5 mps 738 mmHg 51%
    08:00 +36°C° 0 mm 6 mps 738 mmHg 48%
    09:00 +38°C° 0 mm 6 mps 739 mmHg 45%
    10:00 +39°C° 0 mm 5 mps 738 mmHg 41%
    11:00 +41°C° 0 mm 4 mps 738 mmHg 36%
    12:00 +42°C° 0 mm 4 mps 738 mmHg 32%
    13:00 +42°C° 0 mm 3 mps 737 mmHg 30%
    14:00 +43°C° 0 mm 3 mps 737 mmHg 27%
    15:00 +42°C° 0 mm 2 mps 736 mmHg 25%
    16:00 +41°C° 0 mm 2 mps 736 mmHg 26%
    17:00 +41°C° 0 mm 2 mps 736 mmHg 27%
    18:00 +41°C° 0 mm 2 mps 736 mmHg 28%
    19:00 +40°C° 0.2 mm 2 mps 736 mmHg 31%
    20:00 +39°C° 0.2 mm 2 mps 737 mmHg 33%
    21:00 +38°C° 0.2 mm 3 mps 737 mmHg 36%
    22:00 +38°C° 0 mm 4 mps 737 mmHg 37%
    23:00 +37°C° 0 mm 5 mps 737 mmHg 38%

    Tomorrow, 20 September, Thursday

    Time Temperature Precipitation Wind Pressure Humidity
    00:00 +38°C° 0 mm 6 mps 737 mmHg 38%
    01:00 +36°C° 0 mm 5 mps 737 mmHg 44%
    02:00 +35°C° 0 mm 5 mps 737 mmHg 49%
    03:00 +34°C° 0 mm 5 mps 737 mmHg 54%
    04:00 +34°C° 0 mm 5 mps 737 mmHg 55%
    05:00 +33°C° 0 mm 5 mps 737 mmHg 56%
    06:00 +33°C° 0 mm 5 mps 737 mmHg 57%
    07:00 +34°C° 0 mm 4 mps 737 mmHg 52%
    08:00 +36°C° 0 mm 4 mps 738 mmHg 46%
    09:00 +37°C° 0 mm 4 mps 738 mmHg 40%
    10:00 +39°C° 0 mm 3 mps 738 mmHg 35%
    11:00 +40°C° 0 mm 2 mps 738 mmHg 31%
    12:00 +41°C° 0 mm 2 mps 738 mmHg 26%
    13:00 +42°C° 0 mm 2 mps 737 mmHg 23%
    14:00 +42°C° 0 mm 1 mps 736 mmHg 21%
    15:00 +43°C° 0 mm 1 mps 735 mmHg 19%
    16:00 +43°C° 0 mm 1 mps 735 mmHg 19%
    17:00 +42°C° 0 mm 1 mps 735 mmHg 19%
    18:00 +42°C° 0 mm 1 mps 735 mmHg 19%
    19:00 +42°C° 0 mm 1 mps 736 mmHg 20%
    20:00 +41°C° 0 mm 1 mps 736 mmHg 21%
    21:00 +41°C° 0 mm 2 mps 737 mmHg 23%
    22:00 +40°C° 0 mm 2 mps 737 mmHg 25%
    23:00 +39°C° 0 mm 3 mps 737 mmHg 27%

    Day after tomorrow, 21 September, Friday

    Time Temperature Precipitation Wind Pressure Humidity
    00:00 +40°C° 0 mm 4 mps 737 mmHg 29%
    01:00 +38°C° 0 mm 4 mps 736 mmHg 31%
    02:00 +37°C° 0 mm 4 mps 736 mmHg 34%
    03:00 +37°C° 0 mm 4 mps 736 mmHg 37%
    04:00 +36°C° 0 mm 5 mps 736 mmHg 40%
    05:00 +36°C° 0 mm 5 mps 736 mmHg 44%
    06:00 +35°C° 0 mm 6 mps 736 mmHg 48%
    07:00 +36°C° 0 mm 6 mps 737 mmHg 45%
    08:00 +38°C° 0 mm 6 mps 737 mmHg 41%
    09:00 +39°C° 0 mm 6 mps 738 mmHg 38%
    10:00 +41°C° 0 mm 6 mps 738 mmHg 35%
    11:00 +42°C° 0 mm 5 mps 737 mmHg 32%
    12:00 +43°C° 0 mm 5 mps 737 mmHg 28%
    13:00 +43°C° 0 mm 4 mps 736 mmHg 27%
    14:00 +43°C° 0 mm 3 mps 735 mmHg 25%
    15:00 +42°C° 0 mm 2 mps 735 mmHg 23%
    16:00 +43°C° 0.4 mm 3 mps 735 mmHg 25%
    17:00 +42°C° 0.4 mm 3 mps 735 mmHg 27%
    18:00 +41°C° 0.4 mm 4 mps 735 mmHg 29%
    19:00 +39°C° 2.7 mm 5 mps 736 mmHg 38%
    20:00 +36°C° 2.7 mm 7 mps 736 mmHg 47%
    21:00 +34°C° 2.7 mm 8 mps 737 mmHg 55%
    22:00 +34°C° 0.5 mm 8 mps 737 mmHg 52%
    23:00 +34°C° 0.5 mm 7 mps 737 mmHg 50%

    22 September, Saturday

    Time Temperature Precipitation Wind Pressure Humidity
    00:00 +34°C° 0.5 mm 7 mps 737 mmHg 47%
    01:00 +34°C° 0.1 mm 6 mps 737 mmHg 46%
    02:00 +34°C° 0.1 mm 4 mps 736 mmHg 44%
    03:00 +34°C° 0.1 mm 3 mps 736 mmHg 43%
    04:00 +34°C° 0.1 mm 4 mps 736 mmHg 44%
    05:00 +34°C° 0.1 mm 4 mps 737 mmHg 46%
    06:00 +33°C° 0.1 mm 4 mps 737 mmHg 47%
    07:00 +35°C° 0 mm 5 mps 738 mmHg 43%
    08:00 +36°C° 0 mm 5 mps 738 mmHg 39%
    09:00 +37°C° 0 mm 5 mps 739 mmHg 35%
    10:00 +39°C° 0 mm 6 mps 738 mmHg 32%
    11:00 +40°C° 0 mm 6 mps 738 mmHg 30%
    12:00 +41°C° 0 mm 7 mps 738 mmHg 27%
    13:00 +42°C° 0 mm 6 mps 737 mmHg 26%
    14:00 +42°C° 0 mm 6 mps 736 mmHg 25%
    15:00 +42°C° 0 mm 5 mps 735 mmHg 23%
    16:00 +42°C° 0.1 mm 4 mps 736 mmHg 24%
    17:00 +41°C° 0.1 mm 4 mps 736 mmHg 25%
    18:00 +40°C° 0.1 mm 3 mps 736 mmHg 25%
    19:00 +40°C° 0.6 mm 4 mps 736 mmHg 30%
    20:00 +37°C° 0.6 mm 5 mps 737 mmHg 35%
    21:00 +36°C° 0.6 mm 6 mps 737 mmHg 40%
    22:00 +36°C° 0 mm 4 mps 737 mmHg 39%
    23:00 +36°C° 0 mm 3 mps 737 mmHg 38%

    23 September, Sunday

    Time Temperature Precipitation Wind Pressure Humidity
    00:00 +37°C° 0 mm 2 mps 736 mmHg 36%
    01:00 +36°C° 0.1 mm 2 mps 736 mmHg 38%
    02:00 +36°C° 0.1 mm 2 mps 736 mmHg 39%
    03:00 +35°C° 0.1 mm 3 mps 736 mmHg 40%
    04:00 +35°C° 0.2 mm 3 mps 737 mmHg 43%
    05:00 +34°C° 0.2 mm 3 mps 737 mmHg 46%
    06:00 +33°C° 0.2 mm 3 mps 738 mmHg 49%
    07:00 +34°C° 0.1 mm 4 mps 738 mmHg 47%
    08:00 +35°C° 0.1 mm 4 mps 739 mmHg 44%
    09:00 +36°C° 0.1 mm 5 mps 739 mmHg 42%
    10:00 +38°C° 0 mm 4 mps 739 mmHg 38%
    11:00 +40°C° 0 mm 4 mps 738 mmHg 33%
    12:00 +41°C° 0 mm 4 mps 737 mmHg 29%
    13:00 +42°C° 0 mm 3 mps 737 mmHg 26%
    14:00 +41°C° 0 mm 2 mps 736 mmHg 24%
    15:00 +42°C° 0 mm 2 mps 736 mmHg 22%
    16:00 +42°C° 0 mm 2 mps 736 mmHg 22%
    17:00 +42°C° 0 mm 2 mps 736 mmHg 23%
    18:00 +42°C° 0 mm 3 mps 736 mmHg 23%
    19:00 +42°C° 0 mm 4 mps 737 mmHg 26%
    20:00 +41°C° 0 mm 5 mps 737 mmHg 29%
    21:00 +40°C° 0 mm 6 mps 737 mmHg 32%
    22:00 +39°C° 0 mm 6 mps 737 mmHg 35%
    23:00 +38°C° 0 mm 6 mps 737 mmHg 39%

    24 September, Monday

    Time Temperature Precipitation Wind Pressure Humidity
    00:00 +36°C° 0 mm 6 mps 736 mmHg 43%
    01:00 +35°C° 0 mm 6 mps 736 mmHg 46%
    02:00 +35°C° 0 mm 6 mps 736 mmHg 49%
    03:00 +34°C° 0 mm 5 mps 736 mmHg 51%
    04:00 +34°C° 0 mm 5 mps 736 mmHg 53%
    05:00 +34°C° 0 mm 5 mps 737 mmHg 54%
    06:00 +34°C° 0 mm 4 mps 737 mmHg 55%
    07:00 +35°C° 0 mm 5 mps 738 mmHg 51%
    08:00 +36°C° 0 mm 6 mps 738 mmHg 46%
    09:00 +38°C° 0 mm 6 mps 738 mmHg 42%
    10:00 +40°C° 0 mm 6 mps 738 mmHg 36%
    11:00 +41°C° 0 mm 5 mps 737 mmHg 30%
    12:00 +43°C° 0 mm 5 mps 737 mmHg 24%
    13:00 +44°C° 0 mm 4 mps 736 mmHg 22%
    14:00 +44°C° 0 mm 4 mps 735 mmHg 19%
    15:00 +45°C° 0 mm 3 mps 735 mmHg 17%
    16:00 +44°C° 0 mm 3 mps 735 mmHg 18%
    17:00 +43°C° 0 mm 2 mps 735 mmHg 18%
    18:00 +42°C° 0 mm 1 mps 735 mmHg 19%
    19:00 +42°C° 0 mm 2 mps 735 mmHg 20%
    20:00 +42°C° 0 mm 3 mps 736 mmHg 20%
    21:00 +42°C° 0 mm 4 mps 736 mmHg 20%
    22:00 +40°C° 0.1 mm 3 mps 736 mmHg 22%
    23:00 +39°C° 0.1 mm 3 mps 736 mmHg 24%
    Show more